Flag for Poland Weather past 2 weeks in Warsaw, Poland

Now
54 °F

Clear.


Feels Like: 52 °F
Forecast: 53 / 62 °F
Wind: 7 mph from Southeast

Location: Warsaw Okecie Airport

Current Time: Aug 23, 2014 at 3:53:46 AM

Latest Report: Aug 23, 2014 at 3:00 AM


Visibility: 10 mi

Pressure: 29.95 "Hg

Humidity: 88%

Dew point: 50 °F

Location of WarsawLocation

Historic Weather in Warsaw — Graph

°F

Warsaw temperature yesterday

Maximum temperature yesterday: 70 °F (at 2:30 PM)
Minimum temperature yesterday: 45 °F (at 2:30 AM)
Average temperature yesterday: 58 °F

Past Weeks' High & Low Weather Summary

 TemperatureHumidityPressure
High86 °F (Aug 11, 2:00 PM)100% (Aug 8, 6:00 AM)30.07 "Hg (Aug 8, 6:00 AM)
Low45 °F (Aug 22, 2:30 AM)38% (Aug 20, 3:30 PM)29.56 "Hg (Aug 14, 3:00 AM)
Average64 °F76%29.89 "Hg
* Reported Aug 8 3:00 AM — Aug 23 3:00 AM, Warsaw, Weather by CustomWeather, © 2014

Note: Actual official high and low records may vary slightly from our data, if they occured in-between our weather recording intervals... More about our weather records

Advertising

Warsaw weather history for previous 24 hours

 ConditionsComfort  
Time TempWeatherWind HumidityBarometerVisibility
3:00 AM
Aug 23
54 °FClear.7 mph88%29.95 "Hg10 mi
2:30 AM54 °FClear.6 mph88%29.95 "Hg10 mi
2:00 AM54 °FClear.6 mph88%29.95 "Hg10 mi
1:30 AM54 °FClear.6 mph88%29.95 "Hg10 mi
1:00 AM54 °FClear.5 mph88%29.98 "Hg10 mi
12:30 AM54 °FClear.5 mph88%29.98 "Hg10 mi
12:00 AM55 °FClear.5 mph82%29.98 "Hg10 mi
11:30 PM
Aug 22
57 °FClear.5 mph77%29.98 "Hg10 mi
11:00 PM59 °FPassing clouds.7 mph72%29.98 "HgN/A
10:30 PM59 °FClear.7 mph72%29.98 "Hg10 mi
10:00 PM59 °FClear.7 mph72%29.98 "Hg10 mi
9:30 PM61 °FClear.7 mph63%29.98 "Hg10 mi
9:00 PM63 °FClear.8 mph59%29.98 "Hg10 mi
8:30 PM63 °FSunny.6 mph59%29.98 "Hg10 mi
8:00 PM63 °FSunny.7 mph59%29.98 "Hg10 mi
7:30 PM64 °FSunny.6 mph60%29.98 "Hg10 mi
7:00 PM66 °FSunny.6 mph56%29.98 "Hg10 mi
6:30 PM68 °FPassing clouds.8 mph49%29.98 "HgN/A
6:00 PM70 °FPassing clouds.6 mph46%29.98 "HgN/A
5:30 PM68 °FPassing clouds.8 mph46%29.98 "HgN/A
5:00 PM68 °FPassing clouds.8 mph46%29.98 "HgN/A
4:30 PM70 °FPassing clouds.8 mph43%30.01 "HgN/A
4:00 PM68 °FSunny.8 mph43%30.01 "Hg10 mi
3:30 PM68 °FPassing clouds.10 mph43%30.01 "HgN/A
3:00 PM70 °FSunny.10 mph40%30.01 "Hg10 mi
2:30 PM70 °FPassing clouds.10 mph43%30.01 "HgN/A
2:00 PM68 °FPassing clouds.10 mph46%30.04 "HgN/A
1:30 PM68 °FPassing clouds.8 mph46%30.04 "HgN/A
1:00 PM68 °FPassing clouds.9 mph46%30.04 "HgN/A
12:30 PM68 °FScattered clouds.10 mph46%30.04 "HgN/A
12:00 PM68 °FScattered clouds.13 mph53%30.04 "HgN/A
11:30 AM66 °FPassing clouds.10 mph56%30.04 "HgN/A
11:00 AM66 °FPassing clouds.9 mph56%30.07 "HgN/A
10:30 AM64 °FPassing clouds.6 mph68%30.07 "HgN/A
10:00 AM63 °FPassing clouds.5 mph68%30.07 "HgN/A
9:30 AM61 °FPassing clouds.6 mph77%30.07 "HgN/A
9:00 AM59 °FSunny.6 mph82%30.07 "Hg10 mi
8:30 AM57 °FSunny.2 mph82%30.07 "Hg10 mi
8:00 AM54 °FSunny.2 mph88%30.04 "Hg10 mi
7:30 AM52 °FSunny.3 mph100%30.04 "Hg10 mi
7:00 AM48 °FSunny.2 mph100%30.04 "Hg10 mi
6:30 AM46 °FFog.2 mph93%30.04 "HgN/A
6:00 AM46 °FFog.3 mph100%30.04 "HgN/A
5:30 AM45 °FFog.2 mph100%30.04 "HgN/A
5:00 AM45 °FFog.3 mph100%30.04 "HgN/A
4:30 AM45 °FFog.2 mph100%30.04 "HgN/A
4:00 AM46 °FFog.3 mph93%30.04 "HgN/A
3:30 AM46 °FFog.1 mph100%30.04 "HgN/A
3:00 AM45 °FFog.1 mph100%30.04 "HgN/A
Weather by CustomWeather, © 2014

See weather overviewHow to use our weather pages